Starlink 33823

operational
NORAD ID: 63661 Int'l Des: 2025-083 Owner: SPXS Country: US Constellation: starlink
LEOCIRCULAR

Starlink 33823について

説明を読み込み中...

リアルタイム位置

3D地球を読み込み中...

次回通過

高度履歴

Altitude vs Time

uPlot chart will show altitude changes over time

軌道要素

1 63661U 25083AD 25354.62468164 .00016594 00000-0 61113-3 0 9996
2 63661 42.9999 91.8350 0000777 331.8260 28.2550 15.27582259 38005
Epoch: Dec 20, 2025 • Age: 9 hours

現在のステータス

高度 486.0 km
速度 7.62 km/s
衛星直下点 -17.27°S, 23.99°W
打ち上げ日 Apr 25, 2025
運用期間 0.6 years
タイプ internet

技術仕様

分類 Payload
質量 575.00 kg
乾燥質量 530.00 kg
総質量 575.00 kg
長さ 0.30 m
直径 4.10 m
スパン 29.00 m
形状 Box + pan
製造者 SPXS
バスタイプ Starlink V2MO
フェーズステータス In Orbit
所有者/国 SPXS/US

大規模コンステレーション

Loading constellations...